Regional Weather Roundup
Issued by NWS

Home | Current Version | Previous Version | Graphics & Text | Print | Product List | Glossary On
Versions: 1 2 3 4 5 6 7 8 9 10 11 12 13 14 15 16 17 18 19 20 21 22 23 24 25 26 27 28 29 30 31 32 33 34 35 36 37 38 39 40 41 42 43 44 45 46 47 48 49 50
000
ASUS43 KLSX 282007
RWRMO

WEATHER SUMMARY FOR MISSOURI
NATIONAL WEATHER SERVICE SPRINGFIELD MO
300 PM CDT MON JUL 28 2014

NOTE: "FAIR" INDICATES FEW OR NO CLOUDS BELOW 12,000 FEET WITH NO
       SIGNIFICANT WEATHER AND/OR OBSTRUCTIONS TO VISIBILITY.
       CURRENT SKY AND/OR WEATHER CONDITIONS ARE NOT AVAILABLE FOR
       CHILLICOTHE AND FARMINGTON.

MOZ001>031-035>038-043-044-053-054-282100-
...NORTHERN AND WESTERN MISSOURI...

CITY           SKY/WX    TMP DP  RH WIND       PRES   REMARKS
KANSAS CTY INT PTSUNNY   80  60  50 N13       30.20F
KANSAS C DTWN  PTSUNNY   79  59  50 N10       30.18F
LEE`S SUMMIT   MOSUNNY   80  57  45 N14       30.20F
ST JOSEPH      PTSUNNY   75  61  61 N9        30.21F
CHILLICOTHE      N/A     80  57  45 N8        30.20F
KIRKSVILLE     PTSUNNY   78  55  44 N12       30.20S

$$
MOZ066>068-077>081-088>096-101>105-282100-
...SOUTHWEST MISSOURI...

CITY           SKY/WX    TMP DP  RH WIND       PRES   REMARKS
SPRINGFIELD    MOSUNNY   83  57  41 NW15G22   30.16F
JOPLIN         SUNNY     85  55  35 N6        30.17F

$$
MOZ032>034-039>042-045>050-055>058-069>072-282100-
...CENTRAL MISSOURI...

CITY           SKY/WX    TMP DP  RH WIND       PRES   REMARKS
COLUMBIA       PTSUNNY   79  58  48 NW14G21   30.16S
JEFFERSON CITY MOSUNNY   78  59  51 NW10      30.13F
ROLLA          PTSUNNY   81  57  43 N12       30.12F
SEDALIA        PTSUNNY   78  61  55 N13       30.17F
WHITEMAN AFB   PTSUNNY   80  47  30 NW9       30.16F
OSAGE BEACH    MOSUNNY   81  57  44 NW7       30.14F

$$
MOZ051-052-059>065-282100-
...EAST CENTRAL MISSOURI...

CITY           SKY/WX    TMP DP  RH WIND       PRES   REMARKS
ST LOUIS INTL  PTSUNNY   80  61  52 N14       30.11S
SPIRIT OF STL  PTSUNNY   78  57  48 N13       30.10S
ST CHARLES     PTSUNNY   77  59  53 NW12      30.10F

$$
MOZ072>076-082>087-097>100-106>115-282100-
...SOUTH CENTRAL AND SOUTHEAST MISSOURI...

CITY           SKY/WX    TMP DP  RH WIND       PRES   REMARKS
CAPE GIRARDEAU SUNNY     82  63  52 N15       30.05F
FARMINGTON     CLOUDY    77  57  50 NW9G16    30.12S
POPLAR BLUFF   PTSUNNY   83  60  45 NW8       30.05F
WEST PLAINS    PTSUNNY   82  58  43 N12       30.13F

$$


USA.gov is the U.S. government's official web portal to all federal, state and local government web resources and services.